Tracking 28790 objects as of 19-Apr-2024
HD Live streaming from Space Station
objects crossing your sky now

COSMOS 595

Track COSMOS 595 now!
10-day predictions
COSMOS 595 is classified as:


NORAD ID: 6852
Int'l Code: 1973-069H
Perigee: 1,404.9 km
Apogee: 1,492.8 km
Inclination: 74.0 °
Period: 114.7 minutes
Semi major axis: 7819 km
RCS: 0.6846 m2 (medium)
Launch date: October 2, 1973
Source: Commonwealth of Independent States (former USSR) (CIS)
Launch site: PLESETSK MISSILE AND SPACE COMPLEX (PKMTR)
Your satellite tracking list
Your tracking list is empty




NASA's NSSDC Master Catalog

Two Line Element Set (TLE):
1  6852U 73069H   24109.89162734  .00000000  00000-0  10230-3 0  9991
2  6852  74.0048   4.4109 0056160 222.9923 218.2033 12.55466289316660
Source of the keplerian elements: AFSPC